Location: Antoign�
(47.0844°N, 0.1131°W)
Time: 02:54:51
(UTC+00:00)

CZ-2C R/B - Pass Details

Date: 03 March 2021
Orbit: 784 x 871 km, 98.2° (Epoch: 12 April)

Event Time Altitude Azimuth Distance (km) Brightness Sun altitude
Rises 19:41:04 0° 10° (N) 3,436 5.9 -19.8°
Reaches altitude 10° 19:43:30 10° 7° (N) 2,484 5.2 -20.2°
Maximum altitude 19:48:54 58° 290° (WNW) 967 3.3 -21.1°
Drops below altitude 10° 19:54:08 10° 212° (SSW) 2,411 5.3 -22.0°
Sets 19:56:28 0° 208° (SSW) 3,326 6.0 -22.3°
